Location: STAR School
(35.3054°N, 111.2976°W)
Time: 17:12:15
(UTC-07:00)

N. Korean satellite - Pass Details

Date: 27 October 2019
Orbit: 456 x 506 km, 97.2° (Epoch: 20 November)

Event Time Altitude Azimuth Distance (km) Brightness Sun altitude
Rises 17:56:16 0° 182° (S) 2,457 10.3 -4.9°
Reaches altitude 10° 17:58:21 10° 190° (S) 1,592 9.5 -5.3°
Maximum altitude 18:01:36 41° 262° (W) 682 8.1 -6.0°
Drops below altitude 10° 18:04:54 10° 333° (NNW) 1,622 9.4 -6.6°
Sets 18:07:03 0° 341° (NNW) 2,510 10.3 -7.0°
